Tracking 31027 objects as of 19-Jul-2025
HD Live streaming from Space Station
objects crossing your sky now

COSMOS 1348

Track COSMOS 1348 now!
COSMOS 1348 is classified as:


NORAD ID: 13124
Int'l Code: 1982-029A
Perigee: 6,822.2 km
Apogee: 33,594.4 km
Inclination: 71.9 °
Period: 718.7 minutes
Semi major axis: 26579 km
RCS: 16.1516 m2 (large)
Launch date: April 7, 1982
Source: Commonwealth of Independent States (former USSR) (CIS)
Launch site: PLESETSK MISSILE AND SPACE COMPLEX (PKMTR)
Your satellite tracking list
CZ-2C R/B
Track 1 satellite(s)




NASA's NSSDC Master Catalog

Two Line Element Set (TLE):
1 13124U 82029A   25198.56499069 -.00000375  00000-0  00000-0 0  9991
2 13124  71.9016 157.6964 5036276 342.1851 211.6559  2.00348875316688
Source of the keplerian elements: AFSPC